SCP
0 0 0 0 0 0 0 0 0 0 0 0 0 0 0 0 0 0 0 0 0 0 0 0 0 0 0 0 0 0 0 0 0 0 0 0 0 0
0 0 0 0 0 0 0 0 0 0 0 0 0 0 0 0 0 0 0 0 0 0 0 0 0 0 0 0 0 0 0 0 0 0 0 0 0 0
-0 0 0 0 0 0 0 0 0 0 0 0 0 0 0 0 0 0 0 0 0 0 0 0 0 0 0 0 0 0 0 0 0 0 0 0 0 0
-0 0 0 0 0 0 0 0 0 0 0 0 0 0 0 0 0 0 0 0 0 0 0 0 0 0 0 0 0 0 0 0 0 0 0 0 0 0
0 0 0 0 0 0 0 0 0 0 0 0 0 0 0 0 0 0 0 0 0 0 0 0 0 0 0 0 0 0 0 0 0 0 0 0 0 0
0 0 0 0 0 0 0 0 0 0 0 0 0 0 0 0 0 0 0 0 0 0 0 0 0 0 0 0 0 0 0 0 0 0 0 0 0 0
0 0 0 0 0 0 0 0 0 0 0 0 0 0 0 0 0 0 0 0 0 0 0 0 0 0 0 0 0 0 0 0 0 0 0 0 0 0
0 0 0 0 0 0 0 0 0 0 0 0 0 0 0 0 0 0 0 0 0 0 0 0 0 0 0 0 0 0 0 0 0 0 0 0 0 0
0 0 0 0 0 0 0 0 0 0 0 0 0 0 0 0 0 0 0 0 0 0 0 0 0 0 0 0 0 0 0 0 0 0 0 0 0 0
0 0 0 0 0 0 0 0 0 0 0 0 0 0 0 0 0 0 0 0 0 0 0 0 0 0 0 0 0 0 0 0 0 0 0 0 0 0
0 0 0 0 0 0 0 0 0 0 0 0 0 0 0 0 0 0 0 0 0 0 0 0 0 0 0 0 0 0 0 0 0 0 0 0 0 0
0 0 0 0 0 0 0 0 0 0 0 0 0 0 0 0 0 0 0 0 0 0 0 0 0 0 0 0 0 0 0 0 0 0 0 0 0 0
0 0 0 0 0 0 0 0 0 0 0 0 0 0 0 0 0 0 0 0 0 0 0 0 0 0 0 0 0 0 0 0 0 0 0 0 0 0
0 0 0 0 0 0 0 0 0 0 0 0 0 0 0 0 0 0 0 0 0 0 0 0 0 0 0 0 0 0 0 0 0 0 0 0 0 0
0 0 0 0 0 0 0 0 0 0 0 0 0 0 0 0 0 0 0 0 0 0 0 0 0 0 0 0 0 0 0 0 0 0 0 0 0 0
0 0 0 0 0 0 0 0 0 0 0 0 0 0 0 0 0 0 0 0 0 0 0 0 0 0 0 0 0 0 0 0 0 0 0 0 0 0
0 0 0 0 0 0 0 0 0 0 0 0 0 0 0 0 0 0 0 0 0 0 0 0 0 0 0 0 0 0 0 0 0 0 0 0 0 0
0 0 0 0 0 0 0 0 0 0 0 0 0 0 0 0 0 0 0 0 0 0 0 0 0 0 0 0 0 0 0 0 0 0 0 0 0 0
0 0 0 0 0 0 0 0 0 0 0 0 0 0 0 0 0 0 0 0 0 0 0 0 0 0 0 0 0 0 0 0 0 0 0 0 0 0
0 0 0 0 0 0 0 0 0 0 0 0 0 0 0 0 0 0 0 0 0 0 0 0 0 0 0 0 0 0 0 0 0 0 0 0 0 0
0 0 0 0 0 0 0 0 0 0 0 0 0 0 0 0 0 0 0 0 0 0 0 0 0 0 0 0 0 0 0 0 0 0 0 0 0 0
0 0 0 0 0 0 0 0 0 0 0 0 0 0 0 0 0 0 0 0 0 0 0 0 0 0 0 0 0 0 0 0 0 0 0 0 0 0
0 0 0 0 0 0 0 0 0 0 0 0 0 0 0 0 0 0 0 0 0 0 0 0 0 0 0 0 0 0 0 0 0 0 0 0 0 0
Wind_Speed
2 2 1 1 1 1 2 3 3 2 3 3 2 2 2 2 4 2 3 7 9 9 10 10 9 9 9 9 9 9 10 10 11 11 12 12 12 13
2 2 2 1 1 1 1 2 2 3 4 2 3 2 2 3 5 3 4 8 9 10 10 10 9 9 9 9 9 9 10 10 11 11 12 12 12 13
2 3 3 2 1 2 2 2 2 3 4 4 2 2 2 3 4 3 3 3 4 9 9 9 9 10 10 9 9 9 9 10 10 11 12 12 13 13
3 3 3 2 3 2 2 3 3 3 4 5 3 3 4 4 4 4 4 3 3 8 9 9 10 10 10 9 9 9 9 9 10 10 11 12 12 13
4 4 4 3 4 3 3 3 3 3 3 4 4 3 3 3 3 3 3 3 4 5 8 9 10 10 10 9 9 9 9 9 9 10 11 11 12 13
4 4 4 5 5 4 4 4 3 3 3 4 4 3 3 3 2 3 3 2 3 3 5 6 8 9 9 9 8 8 8 8 8 9 10 11 11 12
4 4 5 6 7 6 4 4 4 3 3 3 4 3 3 2 2 2 3 4 3 2 2 3 3 3 4 7 7 8 8 8 8 9 10 10 10 11
4 4 4 6 7 9 9 7 6 5 4 4 3 4 5 3 3 2 2 3 4 1 2 3 2 3 3 3 7 9 8 7 8 9 9 10 10 10
5 4 4 4 6 4 6 8 8 9 8 5 5 6 5 4 3 3 3 4 5 3 1 4 2 3 3 5 9 8 7 7 8 8 9 9 10 10
5 5 5 5 4 5 4 4 5 6 7 5 6 6 5 4 4 4 4 4 4 2 2 4 3 3 3 3 7 7 7 7 7 8 9 10 10 10
5 5 5 5 9 9 5 5 5 5 7 8 9 9 10 9 6 2 2 2 4 3 2 2 3 3 3 3 4 6 7 7 8 9 10 10 10 10
3 4 8 8 10 9 5 5 6 6 4 4 5 6 5 6 7 4 4 3 3 3 2 2 2 2 3 2 2 2 3 6 8 9 10 10 10 5
4 4 5 10 10 10 8 5 8 6 3 3 3 3 3 3 3 3 4 4 4 5 3 2 2 2 2 3 2 2 2 2 3 4 8 10 10 7
5 4 5 9 10 10 7 8 10 7 2 2 3 3 3 3 3 4 4 5 5 6 4 4 3 3 3 3 4 2 2 2 2 3 3 7 8 10
4 7 8 9 8 6 8 9 6 3 2 3 4 4 4 4 3 3 3 4 5 5 4 5 5 4 4 4 4 3 3 3 2 3 3 3 4 4
4 6 7 7 5 5 5 4 3 3 4 4 4 3 2 2 3 3 3 3 3 3 4 5 5 5 5 5 5 5 4 3 2 3 3 4 4 4
3 2 2 2 2 2 2 3 3 3 4 3 3 3 3 3 3 3 3 3 3 3 3 2 3 4 5 4 4 5 5 4 4 3 3 5 5 4
3 3 3 3 4 4 4 3 3 4 4 4 4 4 4 4 4 3 3 3 4 4 4 2 1 1 1 3 7 6 4 4 3 3 3 4 6 4
4 3 4 4 4 4 4 4 4 4 3 4 4 4 4 4 4 4 3 4 4 4 3 2 2 2 3 4 4 6 4 3 2 3 3 3 5 6
3 4 4 4 4 4 4 4 4 3 4 4 4 4 4 4 4 4 4 4 4 4 3 2 3 4 5 4 3 3 5 4 3 3 3 3 5 8
4 4 4 4 4 4 4 4 4 4 4 4 4 4 4 4 4 4 4 6 5 3 4 4 4 5 2 1 2 3 3 4 5 4 3 3 4 3
4 4 4 4 4 4 4 4 4 4 4 4 4 4 4 4 4 4 4 4 4 3 4 2 1 1 1 2 3 3 3 3 5 7 8 7 3 3
4 4 4 4 4 4 4 4 5 4 4 4 4 4 3 3 4 4 4 3 3 3 2 1 1 1 1 2 2 3 4 4 3 3 4 6 9 12
Wind_Direction
187 186 192 203 193 196 184 175 182 248 274 268 270 264 268 263 292 287 284 299 308 309 308 308 309 309 310 311 313 314 315 317 317 316 317 319 321 323
194 197 208 213 209 201 195 197 194 203 250 266 256 275 289 289 297 289 279 300 303 305 306 304 302 302 303 304 307 308 310 312 313 313 314 315 318 319
203 207 219 206 203 210 202 202 208 202 240 271 264 275 275 278 294 289 278 278 287 300 301 303 304 303 300 298 300 302 306 309 310 311 314 315 316 315
216 217 228 213 214 211 207 218 219 215 223 260 276 272 264 269 274 281 285 284 275 293 297 300 302 303 302 298 298 300 303 306 309 312 313 313 313 313
216 218 226 212 226 221 216 227 232 229 221 243 267 266 270 275 282 281 281 282 283 289 293 297 299 300 302 301 300 303 302 302 305 309 312 312 312 312
222 221 220 214 223 223 222 224 227 234 233 247 261 269 268 268 265 281 297 291 292 292 290 294 297 300 300 302 300 302 301 299 302 307 310 311 313 313
232 229 227 226 228 225 225 219 213 226 237 246 259 268 266 266 261 256 280 299 289 269 292 290 292 287 291 297 292 291 291 293 299 305 308 310 313 314
232 236 238 238 241 244 245 237 221 220 228 235 252 259 266 257 255 257 275 304 300 282 290 286 259 271 274 269 283 287 288 292 301 304 306 308 310 313
224 227 237 238 241 238 251 251 248 248 239 228 240 249 257 247 250 262 253 252 260 270 286 283 273 271 272 279 287 283 291 300 307 309 310 311 310 310
224 222 226 237 234 232 230 239 246 252 252 239 234 245 245 245 236 242 251 260 262 254 210 270 283 273 283 280 283 281 290 298 306 310 311 310 310 309
232 226 225 231 244 246 236 238 252 261 265 258 256 260 265 266 256 248 247 263 280 264 203 241 275 286 284 274 275 280 286 294 304 310 309 309 310 311
239 237 239 240 246 245 233 229 247 256 252 264 268 273 271 269 266 236 221 234 261 272 215 220 263 303 303 284 274 278 286 290 300 305 308 308 309 312
236 237 237 246 250 250 245 233 247 257 243 242 256 264 264 257 256 243 223 219 231 248 222 205 239 236 248 286 284 256 250 273 294 297 306 306 305 305
233 235 238 247 251 252 250 251 260 266 237 237 252 258 257 256 251 247 239 235 232 240 232 209 224 221 241 266 275 274 261 258 260 277 288 299 301 302
231 240 248 253 255 255 254 258 261 241 227 243 251 252 245 245 246 251 250 248 251 246 235 224 226 227 228 246 261 263 284 271 246 261 280 286 284 289
242 249 256 258 253 254 261 258 237 224 231 243 251 253 245 242 246 241 249 256 264 264 239 232 231 225 237 242 247 262 257 264 273 273 281 281 275 265
230 226 228 240 236 239 243 243 236 237 245 243 251 259 256 252 253 243 241 245 249 262 261 242 235 236 234 234 248 252 258 262 260 274 285 287 279 268
238 228 233 234 238 239 241 244 236 235 238 242 246 249 252 251 255 246 239 240 250 254 252 242 229 269 284 264 230 245 252 255 264 269 263 277 285 279
234 231 235 238 240 238 236 238 241 239 237 242 246 245 244 246 249 250 247 248 253 255 252 234 208 210 251 277 270 224 225 250 268 275 262 254 273 285
223 233 239 240 239 238 237 240 245 245 242 242 242 241 237 243 249 249 247 247 256 258 255 233 219 217 227 244 259 268 238 235 250 266 271 272 273 281
233 237 239 239 241 241 241 241 242 245 246 246 244 239 236 238 246 246 246 255 256 251 253 250 242 235 218 171 262 272 271 252 244 244 254 280 288 291
240 241 241 238 238 238 239 241 244 245 243 242 241 238 235 234 241 242 242 247 247 245 251 256 234 187 172 209 247 269 285 296 283 275 264 245 241 265
241 242 243 238 235 234 235 239 242 244 238 238 239 237 234 238 241 238 238 238 240 241 244 256 255 203 213 219 240 263 279 291 297 306 292 286 274 272